Theta_e
348 348 349 351 369 366 368 367 360 358 355 349 349 353 355 353 355 355 342 343 345 347 350 351 349 351 350 351 350 350 350 351 351 350 349 351 351 350 350 351 351 351 349 351 350 350 348 348 348
348 350 350 357 368 372 369 362 363 354 351 348 353 355 355 355 344 342 344 345 345 349 350 351 348 349 351 351 351 351 352 351 351 349 350 351 351 352 352 352 352 350 349 350 350 349 348 348 348
349 351 357 364 364 368 367 361 358 353 350 354 357 351 352 349 343 343 345 345 347 350 350 350 346 349 351 351 352 352 352 350 351 349 351 351 352 352 352 352 348 352 351 351 349 350 349 348 347
349 347 354 367 365 361 361 359 356 353 356 354 353 353 345 343 343 345 347 348 347 349 350 350 349 350 351 351 351 351 351 350 347 349 346 350 352 353 352 352 351 351 351 344 344 344 348 341 342
349 357 363 365 361 358 357 356 356 357 359 356 350 350 348 343 344 348 349 350 349 349 350 350 349 350 351 351 352 351 351 350 347 349 349 351 351 351 351 352 352 351 351 349 346 347 347 343 341
357 349 354 361 360 357 355 357 356 358 354 348 348 348 347 343 347 348 350 350 349 349 348 347 348 350 351 352 349 352 351 348 349 350 351 347 351 352 352 352 352 352 351 350 345 342 342 342 341
353 350 356 358 359 355 357 358 359 358 354 349 345 351 344 345 346 348 350 350 350 350 347 345 349 350 351 350 352 351 350 345 349 349 350 349 350 352 353 353 352 352 350 345 344 341 341 340 341
352 351 357 358 355 359 355 356 354 357 358 346 345 350 349 344 345 351 350 350 351 349 347 346 351 351 348 351 351 351 346 346 351 349 348 349 350 350 351 349 347 348 347 345 344 341 340 340 341
355 361 362 359 357 355 352 355 353 353 354 353 349 344 344 343 349 351 352 352 351 351 347 348 352 348 344 352 349 349 345 347 349 350 349 347 344 344 345 345 347 346 346 343 342 343 340 341 342
357 361 362 355 349 353 354 356 357 356 356 353 347 343 344 343 350 350 350 349 351 352 351 350 349 343 346 352 349 345 345 347 348 347 346 348 349 347 344 342 344 345 346 345 344 343 343 342 343
357 362 357 354 346 351 354 354 354 357 358 352 348 346 344 342 349 350 349 349 350 351 350 350 346 340 346 349 345 341 342 343 344 344 343 348 346 345 343 342 342 342 343 346 346 347 345 344 344
354 353 356 353 349 347 350 348 358 357 357 349 344 345 344 343 348 349 349 349 350 351 349 348 343 338 340 344 338 337 341 342 344 343 338 345 347 347 346 344 344 347 348 349 349 348 348 347 346
342 346 345 347 347 346 345 352 358 357 351 347 343 345 344 345 347 348 349 349 349 350 348 346 342 337 335 338 334 335 338 345 348 341 342 342 345 343 345 348 347 348 348 347 347 346 345 346 345
332 335 337 339 341 345 347 353 356 356 347 347 344 344 345 347 347 347 349 350 349 349 347 345 340 337 337 337 333 335 342 348 348 342 344 348 345 346 341 343 346 348 348 347 348 347 346 345 343
327 331 331 335 341 348 345 352 362 353 346 346 345 343 346 347 347 347 348 350 350 348 347 346 337 340 339 337 336 339 344 346 348 349 345 349 348 349 347 346 348 347 348 348 349 346 345 344 339
328 327 330 334 339 347 345 352 359 352 348 346 345 345 346 347 347 347 348 349 349 349 348 346 339 344 342 345 345 342 345 346 346 346 349 349 351 348 348 349 349 349 349 349 345 346 347 345 343
319 328 333 334 339 349 348 357 359 353 351 348 345 345 347 348 347 347 348 348 348 347 348 345 342 345 346 345 347 347 346 348 348 347 348 350 351 350 347 348 349 349 349 350 347 347 346 343 343
321 327 330 332 343 349 351 353 360 355 354 353 349 347 348 350 349 347 348 348 347 347 346 346 343 345 346 347 347 348 348 345 348 347 350 348 348 350 348 348 349 349 350 348 346 346 347 346 343
322 328 332 333 341 350 351 354 361 357 355 355 353 351 349 350 348 348 347 347 347 347 347 345 344 344 345 347 349 349 348 348 347 347 350 349 349 349 350 349 349 347 350 350 348 346 346 343 344
320 321 325 329 334 347 349 351 358 359 357 355 354 353 352 349 348 347 347 346 346 346 347 346 345 344 344 346 349 348 345 346 347 347 347 348 347 347 347 346 348 349 351 349 349 348 345 338 338
319 321 322 328 332 339 343 353 358 357 357 355 354 353 351 350 349 347 347 347 346 345 346 346 346 344 344 347 348 347 346 345 346 347 348 345 348 348 348 348 347 350 349 351 350 349 346 342 336
320 322 323 326 330 334 345 358 356 355 358 352 355 355 354 351 349 347 347 347 347 345 346 347 346 344 345 346 347 347 346 345 345 346 346 346 346 348 350 349 351 350 351 351 350 348 348 344 336
323 324 325 326 328 330 337 354 351 351 356 354 349 352 352 351 351 349 347 347 347 346 346 347 346 345 345 346 346 345 346 344 344 344 345 347 345 347 350 350 352 352 350 351 351 350 349 348 339
326 326 325 326 325 331 330 334 332 352 352 350 349 347 348 349 349 348 348 347 347 347 346 346 346 346 346 345 345 346 346 345 344 343 344 348 345 344 350 351 351 353 349 352 351 351 349 346 344
328 323 327 328 328 332 327 331 333 346 348 348 348 346 345 347 347 346 348 348 348 347 346 346 346 347 347 347 347 347 346 346 344 343 345 347 347 345 347 351 350 352 354 350 351 352 351 351 349
328 324 326 330 330 330 325 329 329 335 345 346 345 345 344 346 345 342 344 348 348 348 347 346 346 348 348 347 348 348 347 347 346 345 346 347 346 345 344 344 349 347 353 354 351 351 351 352 351
330 330 325 324 317 326 329 323 324 329 339 344 346 344 344 345 344 338 342 345 348 348 347 346 347 348 348 348 348 349 348 348 347 346 346 347 346 346 346 343 344 346 349 355 354 352 351 352 351
329 324 329 322 327 324 321 322 329 326 332 339 343 345 344 344 344 341 339 343 346 347 347 346 346 348 349 349 349 349 349 348 348 347 347 345 346 346 344 343 345 346 347 352 356 354 353 351 353
323 329 326 327 323 332 322 323 319 323 326 336 340 343 343 343 344 342 341 343 344 346 347 347 346 347 348 349 349 349 349 348 349 349 348 347 347 346 346 346 344 347 349 351 353 354 355 353 353
320 324 321 332 327 317 321 328 322 320 321 324 337 341 342 342 342 341 341 343 345 346 347 348 347 346 347 349 350 349 349 349 350 349 349 348 346 347 345 344 348 350 353 353 353 354 354 355 353
Wind_Speed
12 14 11 2 2 2 3 3 2 3 4 5 14 5 6 4 2 2 18 20 27 26 25 25 23 21 20 20 19 19 19 17 17 16 16 15 14 14 14 13 13 12 12 12 11 11 12 13 13
16 13 5 2 1 2 3 1 3 5 6 14 8 10 4 3 3 9 13 29 29 27 27 26 23 22 20 20 19 18 17 16 16 16 15 15 14 14 14 13 12 11 11 10 11 11 11 12 12
19 10 2 2 2 1 3 4 5 3 17 9 5 7 4 4 9 19 19 32 30 29 29 26 24 21 19 19 18 17 16 15 15 15 13 15 14 13 13 12 12 11 10 9 10 10 10 11 12
12 3 2 1 1 2 2 6 4 13 6 8 12 8 5 2 21 12 31 32 32 30 28 26 22 20 19 18 17 16 14 14 15 14 13 13 13 13 13 13 12 10 9 9 10 9 9 11 11
4 1 0 2 2 2 2 3 2 10 5 5 2 5 5 12 15 31 31 31 33 30 27 25 22 19 18 18 16 15 14 15 15 12 13 12 12 11 12 12 11 10 9 8 8 9 9 10 10
1 1 1 1 3 3 3 3 9 1 4 7 8 9 5 19 30 25 29 32 32 30 26 24 21 19 18 17 16 15 14 15 13 12 13 12 11 11 11 11 11 10 9 8 8 8 9 10 9
3 2 2 3 3 4 3 3 4 4 7 6 16 5 4 17 25 24 29 32 30 28 26 24 21 18 17 17 15 14 13 13 12 11 11 11 11 10 9 10 11 10 9 8 9 10 10 11 11
3 3 3 4 1 1 3 2 3 6 3 15 11 7 12 19 25 28 30 31 28 27 26 25 22 19 19 17 14 13 14 12 11 10 9 9 8 10 9 9 10 10 9 8 9 12 11 12 10
2 1 3 3 4 3 5 3 8 6 13 4 7 6 26 30 30 29 28 26 26 25 26 25 23 21 19 17 14 13 13 12 11 10 9 9 9 10 9 8 8 8 7 7 8 10 11 10 10
3 3 7 4 4 2 4 3 9 5 8 5 12 24 31 26 29 28 25 25 24 24 27 26 24 22 20 18 15 14 14 13 12 11 9 8 8 8 8 8 6 6 6 6 6 7 8 8 7
6 6 5 2 5 9 2 3 5 12 3 8 26 29 25 25 25 25 25 26 26 26 29 27 25 23 21 20 17 16 15 15 13 10 9 9 8 8 8 8 7 6 5 5 5 5 5 6 7
4 10 13 2 1 6 7 6 6 11 6 13 25 32 25 22 21 24 25 26 27 28 30 28 26 24 22 19 17 17 16 15 13 11 9 10 8 8 7 8 7 6 4 3 2 3 5 4 5
13 12 9 9 5 5 8 6 5 14 11 20 23 23 22 19 23 24 24 26 28 29 31 30 27 25 23 20 19 18 18 16 14 11 10 9 9 7 7 7 6 3 3 5 3 2 3 4 5
6 14 17 9 10 6 10 3 7 6 18 21 25 24 19 19 25 24 25 27 29 30 33 31 30 27 24 22 21 20 19 16 14 13 11 7 7 6 6 7 7 6 3 3 1 1 5 6 9
8 11 8 7 7 8 8 4 4 16 20 23 24 23 20 19 25 26 29 30 32 33 35 34 32 28 26 23 22 20 18 17 17 15 14 10 9 7 7 7 6 7 4 2 3 3 0 7 7
4 5 3 3 7 5 12 7 12 18 20 22 22 21 21 21 26 30 29 30 32 32 34 34 33 31 29 26 23 21 19 17 18 18 17 15 11 11 8 7 8 6 3 3 6 5 3 6 7
3 4 7 7 9 3 7 3 13 16 17 19 20 20 19 19 22 28 31 33 33 33 37 35 35 33 32 28 24 20 19 21 19 22 19 19 15 12 8 5 7 6 4 4 4 4 2 7 8
6 5 4 5 5 7 7 6 16 20 20 20 20 20 20 19 20 28 28 33 33 35 36 37 37 34 34 30 27 22 16 17 17 17 21 20 15 13 10 7 6 7 3 6 5 5 3 4 7
4 4 6 4 8 7 15 7 18 20 16 20 19 20 21 22 23 28 28 31 32 33 35 38 39 39 35 34 31 29 23 18 17 17 21 20 17 15 12 9 7 7 4 5 5 4 3 4 6
7 5 6 5 6 10 11 14 15 19 22 22 20 19 22 21 20 26 29 31 31 36 37 40 41 42 40 38 37 34 30 24 19 15 17 21 19 16 14 12 10 8 6 5 6 5 5 2 6
14 16 10 8 3 10 8 6 8 13 11 13 18 20 19 22 23 23 27 34 33 33 38 40 42 42 45 42 37 31 28 27 24 20 18 15 20 18 15 12 11 10 11 8 7 6 6 5 6
14 16 14 13 5 4 8 5 8 13 18 17 20 21 20 22 20 19 24 31 36 34 38 42 43 41 45 44 39 35 29 26 30 29 22 18 17 19 17 15 15 14 13 11 9 9 8 6 9
14 8 10 10 3 5 7 4 7 17 19 22 22 22 22 23 22 24 25 36 41 37 36 41 43 42 41 45 40 40 32 29 28 31 25 20 19 20 21 20 18 16 15 14 12 10 11 8 9
5 5 4 1 3 9 13 10 5 12 26 24 23 23 21 21 24 24 34 33 35 39 37 38 40 41 42 45 45 42 36 32 30 27 29 25 23 25 25 24 22 18 17 15 15 11 11 12 11
12 8 3 4 6 11 7 10 13 17 24 29 30 28 26 24 21 21 24 29 34 37 37 38 39 39 41 44 44 45 42 38 32 31 31 31 28 27 29 29 26 22 19 18 16 15 15 15 14
11 11 6 9 5 6 7 7 6 15 24 27 28 27 17 18 19 20 23 31 35 37 39 40 40 40 40 45 44 46 44 40 36 33 33 31 31 31 28 29 28 25 22 21 18 18 17 16 18
11 17 11 5 3 2 6 5 6 7 14 14 21 15 21 22 21 21 19 28 35 38 41 42 41 42 42 44 43 41 43 41 40 37 35 36 32 27 30 29 27 29 26 24 23 23 21 20 20
20 9 8 5 8 8 4 5 7 11 15 13 16 20 20 22 20 19 19 27 33 38 42 43 43 44 44 44 42 42 44 45 41 38 37 36 33 31 31 29 27 28 30 28 28 27 24 23 24
11 11 5 6 4 11 1 7 7 12 16 13 16 20 23 22 23 21 20 32 32 35 37 41 40 40 39 40 40 38 39 41 41 39 39 37 36 35 31 27 28 28 30 32 30 31 29 26 27
11 11 8 11 12 3 3 14 5 10 13 14 16 17 20 23 24 21 22 29 33 33 36 39 40 39 40 40 39 40 39 39 40 43 42 40 39 36 31 32 29 28 30 32 35 34 33 32 30
Wind_Direction
171 162 165 198 227 231 250 151 325 121 115 127 142 152 152 36 143 181 150 143 148 146 146 143 139 132 129 126 124 119 119 118 119 118 121 123 125 126 124 121 121 117 114 108 99 94 90 94 101
172 164 204 260 263 314 332 333 309 160 137 133 92 111 79 83 83 119 127 149 149 148 149 149 144 135 132 128 125 121 119 119 120 122 123 120 122 119 122 124 117 115 112 106 101 97 95 95 101
170 184 257 236 74 71 310 347 298 107 135 139 106 43 76 94 117 145 151 150 148 151 152 151 147 136 135 133 128 122 120 121 119 121 121 119 123 120 121 124 122 116 114 111 104 100 97 99 102
174 206 265 249 268 177 224 304 161 132 99 74 116 77 89 237 140 146 146 150 151 153 152 155 148 140 139 135 131 125 126 125 126 120 115 119 122 124 125 125 126 122 113 101 100 100 100 103 108
253 209 308 255 235 213 113 313 180 152 71 88 82 100 80 139 125 136 146 152 150 151 155 156 152 146 142 137 134 134 132 128 130 124 120 122 123 127 130 126 124 123 116 104 94 101 106 117 118
118 91 75 208 257 283 307 345 167 155 104 123 98 100 106 130 136 139 149 153 152 153 156 156 154 148 146 144 139 144 139 137 138 127 124 127 129 130 128 127 126 121 115 109 100 99 104 118 123
148 103 218 254 262 14 290 5 146 144 149 119 147 97 106 140 145 143 153 154 154 155 155 155 154 152 150 151 146 150 146 144 143 138 133 135 130 128 130 132 126 121 114 108 93 93 110 128 128
155 132 256 227 68 47 256 156 89 143 76 131 147 157 159 158 151 150 153 155 157 158 160 157 155 160 160 154 157 158 151 150 146 142 140 140 140 137 139 135 125 120 114 104 89 89 106 125 129
176 26 254 233 171 150 286 182 151 94 141 174 173 133 145 149 145 143 145 153 159 164 164 162 163 167 164 161 164 162 155 155 151 146 152 151 147 146 143 143 134 120 114 105 94 97 106 124 134
186 195 217 234 104 186 147 151 126 137 150 64 97 126 146 150 148 151 151 158 165 168 170 169 172 172 171 171 172 168 162 162 161 161 160 159 153 146 145 149 143 133 123 114 102 100 109 119 123
191 228 190 261 125 156 195 198 130 148 169 186 149 150 155 155 158 156 157 164 170 172 173 177 179 178 179 180 179 174 169 168 171 177 163 165 161 154 150 156 156 149 133 122 117 134 150 148 148
254 239 251 214 190 181 165 144 150 173 205 155 162 158 157 163 165 162 161 166 170 174 179 183 184 184 189 187 187 181 176 177 178 191 192 190 179 166 167 162 160 147 139 122 114 128 148 151 183
232 257 264 266 243 149 170 156 189 194 127 140 152 158 165 163 163 166 164 168 174 176 185 188 188 189 193 195 194 191 187 188 190 184 181 171 185 181 184 183 185 190 174 137 129 123 115 116 171
199 238 263 273 280 164 153 139 129 135 136 147 159 165 171 169 168 164 169 174 177 183 188 190 194 192 196 197 198 196 194 193 198 198 190 168 190 184 187 167 162 153 144 154 93 127 142 113 118
251 288 299 251 254 176 142 183 171 146 149 156 164 169 174 177 174 177 177 179 181 187 191 193 195 195 196 197 201 205 204 207 211 212 210 205 200 183 176 180 178 171 160 175 160 139 115 130 136
159 193 267 258 206 233 141 235 164 159 155 160 167 174 180 184 185 181 179 183 184 188 194 195 197 197 199 203 206 213 217 223 230 224 213 217 205 189 187 188 190 194 183 170 180 187 196 153 147
307 191 189 275 201 170 175 200 183 168 163 168 176 183 188 188 190 188 182 184 186 189 195 196 199 201 201 207 214 223 229 238 231 230 221 216 210 204 195 177 185 188 214 256 217 230 220 146 129
202 189 197 191 215 169 172 252 174 180 171 178 182 189 190 194 197 194 189 186 189 192 198 200 202 206 206 209 215 211 207 203 211 212 210 209 210 208 201 198 195 215 207 182 207 263 223 167 140
182 213 196 212 191 145 197 199 189 182 187 179 191 193 199 201 195 194 193 189 191 193 196 203 203 210 211 213 213 205 199 193 196 208 208 207 208 208 206 210 209 220 248 180 180 235 232 123 147
231 250 258 293 183 187 196 213 196 188 200 187 191 197 202 202 198 198 196 190 188 191 198 204 208 210 212 211 207 211 211 207 204 201 209 221 216 212 209 213 221 220 211 194 199 187 188 149 141
211 222 236 232 111 203 173 234 174 197 207 200 207 207 206 205 203 199 197 197 194 192 196 203 206 207 212 208 210 212 215 216 213 212 212 216 216 215 215 218 217 222 217 215 217 206 203 180 176
214 210 222 245 146 199 167 226 209 204 214 211 209 208 204 208 212 208 207 200 196 197 198 202 205 203 209 209 212 212 215 215 219 219 220 220 217 216 220 224 224 224 227 229 216 212 216 207 181
227 165 200 234 196 152 233 123 253 197 221 222 218 211 205 208 208 207 206 206 200 194 196 199 202 203 205 209 211 215 216 220 222 225 224 225 220 218 222 226 226 228 230 226 222 217 213 220 216
170 188 193 255 146 245 214 209 255 193 220 224 226 220 208 205 207 214 210 208 202 194 194 195 197 202 204 209 212 217 215 217 220 222 221 225 224 220 222 227 227 230 227 222 219 218 215 221 226
199 141 226 245 208 235 211 196 219 210 214 217 219 214 212 206 206 203 202 202 200 196 191 192 194 199 203 208 210 215 218 218 220 221 220 224 226 223 223 226 230 231 233 231 230 220 217 221 225
208 184 168 195 189 218 203 213 233 205 218 220 226 213 203 219 210 205 202 197 198 197 193 192 193 198 200 205 209 214 216 219 221 223 223 225 228 229 229 230 231 234 235 232 228 220 226 231 230
197 208 195 103 350 176 222 248 297 205 236 222 228 194 199 210 209 208 207 199 197 195 194 193 194 197 199 203 206 210 213 216 220 223 226 226 229 232 232 234 235 235 235 233 231 228 232 230 227
209 159 189 218 191 225 269 212 205 190 230 213 220 207 202 203 207 206 204 205 198 195 195 193 196 194 198 201 204 208 213 219 222 224 225 225 227 230 233 236 239 240 237 234 233 233 233 229 230
211 203 200 159 193 224 234 248 205 195 207 200 219 210 207 201 203 199 199 203 195 193 192 195 197 198 198 198 202 207 212 218 219 225 228 228 230 232 234 237 239 242 241 236 235 237 235 230 233
298 216 170 203 215 245 198 244 250 212 197 195 213 213 209 205 204 200 198 197 195 188 190 195 197 197 199 198 200 206 212 215 218 222 228 231 233 234 235 234 236 237 240 241 239 239 240 236 234